Temp
62 62 63 62 62 63 63 63 63 62 63 63 63 63 62 63 62 54 48 59 59 67 65 59 59 58 58 55 56 53 46 42 46 47 52 52 54 56 58 58 58 60 60 60 56
62 62 62 63 62 61 62 62 62 62 61 63 63 63 62 62 53 48 60 66 67 67 58 57 54 56 53 53 53 50 42 45 51 50 53 53 53 56 56 55 57 58 58 55 55
61 61 61 62 62 61 61 62 62 61 61 60 62 63 62 57 49 52 66 66 67 66 60 59 57 56 50 50 50 48 44 49 53 54 54 53 52 56 54 53 58 58 58 54 53
60 60 61 61 61 61 61 61 61 61 60 60 61 61 61 56 40 55 65 67 67 60 58 56 54 51 47 46 50 46 49 51 53 53 53 52 54 53 53 59 60 60 59 53 52
58 59 59 60 60 61 60 60 60 61 60 59 61 61 57 48 49 60 64 63 59 58 55 53 51 48 46 47 48 45 49 50 52 51 51 51 52 53 51 57 58 56 55 54 53
58 58 58 59 59 60 60 60 60 60 60 60 60 60 52 44 60 60 57 57 56 56 54 54 53 52 48 47 48 50 49 50 50 51 51 50 49 50 54 54 54 54 54 54 53
58 57 57 58 58 59 60 60 60 60 59 59 60 57 49 48 58 58 57 55 56 54 52 54 54 53 50 45 50 49 45 46 49 50 50 50 48 48 55 54 55 55 53 52 52
58 57 57 57 57 58 59 60 59 58 58 58 58 53 44 57 60 57 56 55 56 56 55 56 56 52 49 49 47 44 43 39 47 47 49 51 45 51 52 51 52 53 52 51 52
57 57 57 57 57 57 59 59 58 58 58 58 52 49 42 59 52 58 56 52 53 54 55 59 54 48 47 41 37 36 33 36 43 46 46 45 42 50 50 50 51 51 51 52 51
56 56 56 57 57 56 57 58 57 56 55 56 53 43 46 45 52 53 54 55 51 50 49 48 45 40 38 37 32 33 35 36 37 43 41 40 40 48 49 48 50 50 50 51 51
56 56 56 56 57 55 53 50 42 40 46 39 39 42 45 52 52 49 52 52 50 45 38 42 37 35 40 41 41 39 37 37 38 43 41 39 40 46 48 47 48 50 51 50 52
56 56 56 56 56 56 51 43 44 44 34 44 45 45 49 49 43 47 52 45 45 37 39 35 34 41 43 41 40 38 36 34 40 41 40 37 38 43 46 46 50 53 54 53 51
56 55 55 56 56 52 46 46 50 50 35 38 42 42 45 45 40 42 49 46 43 39 37 36 37 43 42 37 38 36 37 35 37 38 38 37 38 39 47 45 47 49 53 54 54
55 55 55 55 48 46 43 49 48 49 27 31 35 39 44 45 40 49 50 48 44 39 38 37 41 41 38 38 40 35 40 40 38 38 31 37 31 36 42 45 46 49 50 53 50
54 54 55 55 45 41 45 48 47 41 13 34 34 47 44 40 40 40 49 46 40 40 41 35 35 35 35 38 42 38 42 40 38 35 33 32 31 33 37 43 47 51 51 50 50
54 54 54 48 47 46 48 48 41 23 13 29 35 36 36 40 38 40 42 46 46 43 44 39 39 42 41 40 43 40 37 36 33 33 25 32 32 31 39 47 51 47 48 48 47
53 52 48 48 41 48 46 37 22 15 30 23 31 35 36 35 36 35 38 37 35 31 30 35 38 41 41 36 38 38 36 24 21 19 24 29 31 40 42 47 47 49 48 47 45
53 51 47 49 47 47 41 28 15 19 21 33 33 33 31 36 36 34 35 33 39 36 32 29 27 37 42 40 34 36 39 26 19 19 26 29 28 36 43 45 45 45 45 45 44
49 44 43 46 47 45 32 20 21 21 33 31 32 30 29 33 32 34 33 34 38 39 33 30 30 37 42 42 44 36 35 41 29 18 24 28 32 39 41 42 43 44 44 44 42
42 40 41 45 47 38 28 24 20 32 33 33 26 29 19 29 28 30 32 39 37 41 39 34 29 37 39 44 43 42 46 33 33 19 17 26 28 35 40 41 42 43 43 43 42
39 33 40 45 40 31 23 22 26 33 35 30 27 20 27 26 29 27 30 36 42 40 41 36 34 30 36 36 37 37 37 37 38 33 28 23 29 37 41 41 43 40 41 41 41
34 28 41 42 27 28 22 24 34 31 34 32 34 32 25 27 27 28 29 33 38 40 36 36 32 23 31 34 37 44 40 42 33 27 28 30 30 37 39 40 41 41 42 41 41
31 29 40 40 22 23 24 25 28 29 29 31 29 34 31 27 24 32 31 38 38 39 36 39 31 24 25 32 33 34 37 42 39 33 28 28 30 37 37 38 39 41 42 42 42
29 24 28 31 27 27 21 24 24 32 31 32 29 34 29 28 29 29 31 35 35 38 45 42 33 31 26 32 33 30 34 38 40 32 33 33 32 35 38 39 41 41 41 41 42
28 22 23 22 22 25 26 25 21 23 29 33 28 28 26 21 24 26 29 33 33 36 38 36 25 32 35 33 33 35 36 34 35 40 33 37 33 38 40 41 41 42 41 41 42
21 19 17 27 28 26 29 19 24 24 26 25 26 26 24 19 28 22 29 30 31 33 30 34 26 23 18 28 30 29 35 34 35 36 39 34 33 42 43 41 40 42 42 43 42
26 30 29 30 27 23 20 23 27 29 29 30 28 24 23 24 31 34 34 34 33 31 32 32 24 23 24 24 23 22 28 33 35 39 39 32 42 40 39 40 42 40 41 43 43
MSLP
1017.52 1017.46 1017.43 1017.47 1017.44 1017.44 1017.38 1017.45 1017.35 1017.20 1017.00 1016.95 1016.90 1016.89 1016.80 1016.71 1016.48 1016.58 1016.28 1014.51 1014.40 1014.38 1014.61 1015.39 1015.56 1015.63 1015.87 1016.38 1016.64 1017.09 1017.59 1017.37 1016.58 1016.23 1014.99 1014.78 1014.64 1014.38 1014.26 1014.40 1014.54 1014.57 1014.76 1015.32 1015.80
1017.16 1017.23 1017.19 1017.10 1017.19 1017.21 1017.27 1017.35 1017.37 1017.34 1017.12 1016.83 1016.64 1016.70 1016.72 1016.63 1016.48 1015.79 1014.27 1013.98 1014.08 1014.15 1014.75 1015.12 1015.61 1015.89 1016.33 1016.36 1016.70 1016.90 1017.11 1016.37 1015.45 1015.08 1014.57 1014.49 1014.53 1014.32 1014.45 1014.54 1014.55 1014.55 1014.81 1015.48 1016.07
1016.77 1016.88 1016.96 1016.97 1016.94 1017.04 1017.13 1017.16 1017.25 1017.23 1017.21 1016.97 1016.60 1016.54 1016.55 1016.56 1016.47 1014.47 1013.71 1013.56 1013.81 1014.07 1014.31 1014.69 1015.20 1015.62 1016.33 1016.43 1016.48 1016.46 1016.01 1015.49 1014.78 1014.40 1014.35 1014.44 1014.46 1014.35 1014.51 1014.45 1013.73 1013.87 1014.39 1015.42 1016.08
1016.50 1016.49 1016.60 1016.73 1016.75 1016.75 1016.91 1016.98 1017.06 1017.04 1017.09 1017.06 1016.71 1016.58 1016.53 1016.61 1016.00 1014.06 1013.55 1012.92 1013.31 1014.15 1014.62 1014.89 1015.48 1015.75 1016.06 1016.40 1015.95 1016.23 1015.43 1015.14 1014.58 1014.39 1014.37 1014.54 1014.38 1014.41 1014.34 1013.39 1013.14 1013.41 1013.97 1014.95 1015.59
1016.27 1016.20 1016.23 1016.37 1016.49 1016.43 1016.49 1016.69 1016.77 1016.89 1016.98 1016.91 1016.86 1016.72 1016.60 1016.37 1014.91 1013.85 1013.79 1013.65 1013.75 1014.29 1014.64 1014.91 1015.30 1015.66 1015.68 1015.73 1015.88 1015.88 1015.15 1014.93 1014.65 1014.55 1014.56 1014.48 1014.42 1014.49 1013.80 1013.13 1013.44 1013.77 1014.27 1014.71 1015.13
1015.97 1015.97 1015.88 1016.07 1016.20 1016.27 1016.34 1016.26 1016.40 1016.54 1016.78 1016.89 1016.82 1016.67 1016.74 1015.27 1014.38 1013.96 1014.06 1014.14 1014.22 1014.39 1014.63 1014.82 1014.79 1015.04 1015.32 1015.48 1015.26 1014.74 1014.87 1014.79 1014.81 1014.73 1014.77 1014.78 1014.66 1014.41 1012.90 1012.80 1013.24 1013.91 1014.18 1014.43 1014.71
1015.68 1015.59 1015.59 1015.60 1015.75 1015.98 1016.02 1016.18 1016.05 1016.07 1016.36 1016.56 1016.65 1016.66 1015.91 1014.29 1014.15 1014.21 1014.15 1014.20 1014.44 1014.57 1014.51 1014.47 1014.56 1014.76 1014.85 1015.31 1014.90 1014.74 1015.07 1015.07 1014.95 1014.87 1014.81 1014.79 1014.72 1013.21 1012.58 1012.81 1013.15 1013.54 1013.92 1014.14 1014.19
1015.02 1015.22 1015.23 1015.20 1015.21 1015.38 1015.68 1015.76 1016.00 1015.99 1016.08 1016.32 1016.44 1016.49 1014.37 1013.68 1013.65 1014.07 1014.34 1014.15 1014.27 1014.55 1014.62 1014.20 1014.33 1014.77 1014.92 1014.94 1015.11 1015.34 1015.41 1015.41 1014.75 1014.84 1014.82 1014.96 1013.79 1012.52 1012.48 1012.80 1013.04 1013.32 1013.54 1013.75 1013.68
1014.44 1014.63 1014.64 1014.59 1014.82 1014.95 1015.11 1015.34 1015.66 1015.87 1015.83 1016.06 1016.37 1016.37 1014.09 1012.87 1012.97 1013.28 1013.76 1014.22 1014.18 1014.24 1014.48 1014.31 1014.35 1014.77 1015.07 1015.46 1015.92 1015.94 1015.81 1015.70 1015.21 1014.72 1014.84 1015.09 1014.04 1012.77 1012.58 1012.88 1012.87 1013.03 1013.12 1013.30 1013.20
1013.78 1014.05 1014.06 1014.13 1014.40 1014.43 1014.71 1014.99 1015.28 1015.70 1015.79 1016.04 1016.09 1016.59 1014.05 1012.67 1012.40 1012.39 1012.98 1013.56 1014.17 1014.36 1014.63 1014.79 1014.67 1014.73 1015.12 1015.25 1014.63 1015.80 1015.94 1015.56 1015.32 1014.83 1015.10 1015.03 1014.35 1012.81 1012.87 1013.03 1012.88 1012.74 1012.57 1012.59 1012.53
1013.01 1013.23 1013.33 1013.50 1013.75 1014.24 1014.44 1015.00 1015.54 1015.62 1015.28 1014.67 1014.57 1013.17 1012.30 1011.86 1012.08 1012.36 1012.51 1013.33 1013.78 1014.27 1014.36 1014.72 1014.82 1012.98 1013.79 1014.52 1014.83 1015.02 1015.26 1015.19 1015.03 1014.65 1014.95 1014.79 1014.30 1013.21 1012.79 1012.89 1012.72 1012.27 1011.88 1011.61 1011.23
1012.32 1012.60 1012.62 1012.75 1013.21 1013.59 1014.10 1013.46 1013.69 1013.57 1014.16 1014.24 1013.96 1013.85 1013.04 1012.67 1012.30 1012.04 1012.26 1013.13 1013.35 1013.48 1014.19 1014.75 1012.62 1013.66 1013.99 1014.45 1014.83 1015.15 1015.19 1015.29 1014.99 1014.83 1015.08 1014.63 1013.86 1013.04 1012.36 1012.22 1011.69 1011.34 1011.16 1010.74 1010.29
1011.60 1011.85 1012.02 1012.15 1012.58 1013.10 1013.33 1013.43 1013.51 1013.61 1013.86 1013.36 1012.75 1012.24 1012.70 1013.13 1012.57 1011.45 1011.69 1011.83 1012.39 1013.02 1013.16 1012.97 1012.35 1013.25 1013.76 1014.18 1014.50 1014.67 1014.78 1015.12 1015.07 1015.00 1015.08 1014.94 1013.26 1012.45 1011.09 1010.84 1010.55 1010.38 1009.97 1009.94 1009.62
1010.93 1011.15 1011.32 1011.83 1012.55 1012.56 1012.58 1013.00 1014.07 1014.30 1013.76 1012.07 1011.82 1010.61 1011.43 1012.40 1011.55 1011.08 1010.76 1010.83 1011.47 1011.59 1012.77 1013.14 1012.64 1012.75 1013.02 1013.34 1013.79 1014.18 1014.34 1014.86 1015.26 1015.51 1015.55 1014.97 1013.03 1012.11 1010.96 1010.36 1010.01 1009.39 1009.17 1008.96 1009.24
1010.17 1010.35 1010.68 1011.11 1011.34 1011.72 1012.10 1012.60 1014.18 1014.84 1012.22 1010.06 1010.06 1009.35 1009.48 1010.61 1009.56 1009.18 1009.92 1010.41 1010.03 1010.49 1011.82 1011.40 1012.11 1012.83 1013.07 1012.52 1013.34 1013.26 1013.68 1014.62 1015.32 1015.65 1015.71 1015.15 1015.02 1011.36 1010.90 1010.16 1009.29 1008.52 1008.27 1008.87 1009.06
1009.25 1009.47 1009.92 1010.32 1010.85 1011.29 1012.22 1012.75 1014.27 1014.10 1010.91 1009.53 1008.91 1008.96 1009.70 1010.10 1009.43 1009.36 1009.49 1009.91 1009.42 1010.10 1010.53 1010.98 1011.27 1011.55 1011.20 1012.20 1012.57 1013.33 1014.23 1015.16 1016.00 1016.40 1015.56 1014.50 1014.46 1010.92 1010.27 1009.27 1008.23 1007.97 1008.19 1008.75 1009.34
1008.30 1008.88 1009.51 1009.60 1010.07 1010.88 1012.34 1013.34 1013.92 1011.60 1009.64 1009.49 1008.50 1008.35 1008.47 1008.83 1009.31 1009.08 1008.86 1009.26 1008.68 1009.26 1010.13 1010.94 1011.06 1010.88 1010.93 1011.95 1012.69 1012.66 1013.56 1015.45 1016.40 1016.65 1014.59 1014.01 1013.58 1010.18 1009.35 1008.42 1007.96 1007.94 1008.30 1008.81 1009.19
1007.44 1008.08 1008.33 1008.78 1009.48 1010.37 1011.63 1012.71 1011.74 1010.29 1008.93 1008.17 1007.87 1008.43 1008.52 1008.66 1008.67 1009.02 1008.52 1008.18 1008.20 1008.17 1008.85 1009.61 1010.42 1009.88 1009.92 1010.07 1011.07 1011.94 1012.07 1012.42 1013.63 1014.39 1014.51 1014.28 1012.07 1009.40 1008.16 1007.70 1007.75 1007.96 1008.31 1008.59 1009.20
1006.85 1007.36 1007.55 1007.64 1008.36 1009.78 1010.99 1010.36 1009.47 1009.14 1007.77 1007.53 1007.91 1008.49 1008.45 1008.68 1008.64 1008.59 1008.21 1007.51 1006.71 1006.71 1007.44 1008.53 1008.85 1008.78 1008.60 1008.92 1009.40 1010.69 1010.73 1010.26 1012.09 1013.14 1013.57 1012.32 1010.59 1009.13 1007.89 1007.79 1007.93 1007.89 1008.06 1008.60 1009.10
1005.97 1006.19 1005.74 1006.77 1007.71 1009.36 1009.00 1009.18 1009.05 1007.83 1007.08 1007.41 1007.70 1007.60 1007.62 1007.89 1008.37 1008.13 1007.75 1006.82 1006.91 1006.76 1006.29 1006.85 1007.88 1007.93 1008.32 1008.25 1008.57 1008.20 1008.61 1010.25 1010.64 1011.72 1012.21 1011.16 1010.38 1008.68 1008.01 1007.74 1007.87 1008.10 1008.32 1008.64 1009.21
1004.73 1004.93 1004.64 1005.67 1007.24 1008.25 1007.77 1008.42 1008.18 1007.55 1007.13 1007.43 1007.53 1007.66 1007.49 1007.71 1007.50 1007.56 1007.22 1006.92 1006.34 1006.32 1006.85 1006.66 1006.62 1008.16 1008.05 1007.52 1007.37 1007.99 1008.24 1008.69 1009.07 1009.97 1010.28 1010.35 1008.95 1007.84 1007.67 1007.53 1007.72 1008.11 1008.37 1008.86 1009.18
1003.41 1004.35 1004.03 1005.29 1006.24 1007.46 1007.94 1007.90 1007.31 1007.23 1007.31 1007.35 1007.52 1007.51 1007.65 1007.67 1007.56 1007.45 1007.04 1006.39 1005.59 1006.07 1006.57 1006.72 1006.79 1007.70 1007.44 1007.26 1006.96 1006.65 1006.77 1007.24 1007.80 1008.91 1009.12 1009.11 1008.33 1007.70 1007.86 1007.82 1007.85 1008.18 1008.30 1008.79 1009.36
1003.51 1004.06 1003.69 1003.55 1004.80 1006.73 1007.80 1007.57 1007.26 1007.18 1007.10 1007.62 1007.59 1007.48 1007.97 1008.03 1007.94 1006.99 1007.21 1006.07 1005.66 1005.79 1005.80 1006.34 1006.54 1007.42 1007.86 1007.97 1007.46 1006.74 1006.55 1006.46 1007.18 1007.65 1008.21 1008.62 1008.13 1007.78 1008.06 1008.21 1008.16 1008.18 1008.43 1008.80 1009.21
1003.00 1003.35 1003.51 1004.00 1004.50 1005.19 1006.94 1007.33 1007.50 1007.24 1007.32 1007.51 1007.81 1007.57 1008.15 1008.23 1007.94 1007.72 1006.92 1006.29 1005.82 1005.54 1005.72 1005.87 1006.25 1006.22 1006.06 1005.76 1006.07 1006.76 1006.21 1005.97 1006.33 1007.10 1007.25 1007.35 1007.73 1008.09 1008.20 1008.28 1008.35 1008.37 1008.40 1008.69 1009.00
1001.67 1001.94 1002.29 1003.45 1005.13 1005.20 1006.20 1006.92 1007.41 1007.38 1007.33 1007.43 1008.09 1008.20 1008.47 1008.75 1008.34 1007.96 1007.24 1006.70 1006.53 1005.92 1005.52 1006.31 1006.09 1006.62 1006.28 1006.20 1006.02 1005.91 1005.92 1006.15 1006.20 1006.05 1006.69 1006.53 1007.23 1007.42 1007.55 1007.73 1008.09 1008.40 1008.51 1008.68 1008.90
1000.07 1001.04 1001.99 1003.57 1004.59 1005.33 1006.02 1006.64 1006.64 1006.95 1007.19 1007.66 1008.16 1008.33 1008.53 1008.55 1008.02 1007.75 1007.25 1007.14 1006.59 1006.20 1006.21 1005.99 1005.98 1006.40 1007.04 1006.67 1006.28 1006.24 1005.70 1005.81 1006.05 1006.05 1006.42 1006.48 1006.78 1006.52 1006.74 1007.62 1008.23 1008.37 1008.69 1008.83 1009.16
998.66 999.50 1000.96 1003.45 1004.31 1005.26 1005.63 1005.91 1006.30 1006.59 1007.23 1007.53 1007.93 1008.39 1008.69 1008.29 1007.63 1007.18 1007.10 1007.01 1007.15 1006.84 1006.14 1006.11 1006.33 1006.99 1007.00 1007.31 1007.06 1006.34 1005.66 1005.66 1005.70 1005.60 1005.75 1006.06 1005.39 1006.41 1007.24 1007.64 1007.88 1008.47 1009.04 1009.04 1009.32
Wind_Speed
11 11 11 11 12 12 12 14 15 16 13 12 10 8 7 10 12 2 6 11 8 7 7 6 2 3 3 4 4 3 2 4 5 7 6 3 4 2 1 2 3 6 3 1 6
13 11 10 12 11 10 10 11 13 15 18 13 11 8 7 9 3 7 12 11 12 11 7 9 7 6 3 5 3 4 5 10 7 5 4 4 4 5 3 2 4 4 3 5 8
14 13 13 12 11 9 10 10 11 12 14 17 9 8 4 3 6 6 6 9 11 11 5 4 7 6 4 3 5 5 7 6 5 5 3 3 2 4 5 5 9 9 6 7 7
15 15 14 13 13 10 9 9 9 10 11 12 14 12 9 1 7 1 11 8 12 8 6 7 5 7 6 6 5 3 7 5 2 4 5 4 3 3 7 7 3 8 3 7 11
13 13 15 14 14 12 10 9 9 11 10 10 13 12 4 3 8 6 9 7 5 7 6 6 6 6 8 7 6 4 4 5 3 2 4 1 5 6 8 12 6 1 3 7 9
12 12 12 15 14 14 13 11 11 11 11 9 9 11 4 16 5 3 1 3 3 4 5 5 8 6 5 5 8 6 6 2 3 5 4 4 3 3 6 4 8 8 10 9 11
15 13 12 15 17 16 13 14 11 10 10 9 8 5 10 17 3 4 1 2 2 1 4 4 3 6 6 2 5 3 2 2 6 5 5 5 7 17 6 3 7 8 7 8 11
14 15 14 13 17 17 16 15 11 8 3 4 8 4 12 4 12 9 5 6 3 4 3 4 4 3 3 2 5 5 2 3 4 8 4 8 13 7 3 7 10 9 7 7 9
14 14 15 15 14 17 16 15 12 9 5 4 1 5 11 3 15 15 8 7 2 4 5 1 5 6 2 6 1 4 4 5 7 10 5 7 7 6 1 5 7 7 7 6 8
16 16 18 18 16 15 17 16 12 8 4 3 4 5 6 7 8 6 6 8 4 4 2 5 3 5 3 8 12 5 5 4 6 5 4 5 10 14 6 3 8 8 8 9 9
17 18 18 18 19 15 9 6 3 3 7 11 8 10 4 15 4 4 6 9 7 5 9 5 7 21 19 9 7 6 5 7 4 4 5 8 9 16 5 5 9 12 11 10 12
19 17 18 19 17 17 6 7 11 5 5 19 20 18 18 6 6 7 10 11 11 11 7 4 23 7 8 7 8 5 5 4 3 3 5 4 12 11 8 8 11 14 14 14 7
19 17 18 18 18 13 12 13 4 3 2 7 16 15 16 6 7 8 16 10 11 12 16 16 3 12 12 8 12 7 12 5 4 1 3 5 10 6 10 5 6 10 14 13 14
21 19 17 14 13 7 13 8 7 2 5 6 9 10 12 5 12 13 12 12 8 20 10 11 6 14 10 15 14 17 8 7 4 2 6 1 11 5 6 8 6 10 10 15 8
23 19 18 15 2 5 2 14 9 3 6 7 8 2 6 21 8 11 11 6 16 11 10 10 9 8 10 7 13 7 10 10 5 2 2 3 5 7 2 6 10 10 10 6 7
22 19 19 10 7 5 12 16 6 6 8 6 8 12 11 23 5 4 10 3 5 9 11 11 4 11 14 6 14 8 8 7 5 3 10 8 7 5 6 6 9 2 1 2 5
21 17 16 6 8 13 14 5 6 7 3 6 8 10 19 17 22 6 21 20 13 11 11 1 5 4 6 8 4 5 11 2 0 2 9 4 9 12 5 8 8 8 6 7 5
21 16 12 11 12 17 9 6 9 5 8 2 5 7 16 15 15 10 18 23 16 9 10 14 11 12 6 7 11 10 13 7 9 6 5 1 11 8 9 8 8 6 6 4 2
5 7 9 8 17 14 10 12 10 9 9 6 4 10 12 12 6 14 16 24 24 20 13 13 10 4 12 6 18 8 13 11 6 3 3 6 8 9 9 10 6 6 3 4 2
8 7 11 18 19 14 11 11 6 4 3 7 9 6 8 13 11 13 14 17 21 17 4 6 6 8 6 5 4 14 13 7 4 8 5 5 5 5 5 7 5 4 4 3 2
4 4 7 18 10 6 11 7 6 4 4 5 6 3 6 8 15 8 4 8 24 18 12 5 5 2 8 11 16 6 10 3 5 4 8 4 7 7 6 4 7 4 5 3 2
4 7 12 17 8 5 5 7 4 6 3 3 3 2 3 4 8 11 14 13 7 10 20 7 4 4 13 1 2 18 11 21 11 10 4 2 6 1 5 5 7 6 5 4 2
4 3 9 13 10 10 0 2 3 4 4 5 5 5 3 2 3 7 9 9 6 14 15 15 6 5 3 0 2 7 10 19 10 4 8 10 7 1 3 4 3 5 5 3 5
4 6 4 2 2 14 8 5 5 1 5 5 3 3 2 2 1 3 2 4 6 10 19 11 10 14 11 16 7 9 13 15 20 11 10 11 6 5 6 7 6 5 2 1 1
4 3 4 10 3 11 4 6 6 6 2 6 3 6 6 3 2 5 5 3 2 6 9 8 11 17 18 5 6 13 15 9 12 18 14 11 8 8 12 13 9 6 3 2 2
7 7 4 11 12 11 11 5 7 4 7 4 3 7 8 7 7 4 3 2 6 4 4 8 5 6 2 1 7 5 16 13 14 12 16 7 8 7 7 6 6 8 7 5 3
1 4 6 15 12 6 6 7 6 8 0 4 6 4 3 8 6 7 5 4 3 4 8 9 7 4 16 6 5 5 12 15 11 12 16 12 16 7 4 9 10 8 7 7 3
Wind_Direction
305 313 300 315 328 325 332 339 336 342 269 264 269 282 303 319 321 11 242 226 185 194 116 118 81 122 101 118 120 144 87 221 224 164 242 149 180 169 310 149 225 198 204 74 110
292 285 297 290 300 313 315 320 329 334 343 287 262 266 303 332 298 242 243 245 235 166 125 155 154 139 156 157 177 152 175 211 203 203 225 193 181 185 153 186 251 251 162 110 136
279 275 277 287 280 294 300 309 315 328 336 339 308 282 300 351 325 250 325 250 221 177 154 137 121 135 167 139 192 182 216 205 235 211 209 190 215 181 164 224 220 204 196 160 170
287 276 270 273 274 269 278 298 312 322 331 338 344 358 330 237 258 43 344 308 189 140 120 123 137 152 161 195 186 197 226 181 269 212 151 198 144 235 191 236 310 214 144 160 179
312 290 272 261 267 252 241 261 283 301 308 326 327 343 330 226 248 318 14 54 85 136 172 157 152 144 181 186 131 216 224 189 239 155 242 118 229 242 246 254 232 322 186 196 204
296 300 286 266 263 266 264 241 262 270 285 288 308 340 251 254 267 317 102 70 113 142 177 159 189 194 168 207 180 205 198 194 203 223 243 214 243 165 246 250 231 211 232 223 216
290 292 295 279 257 255 254 255 240 256 277 267 295 292 251 243 301 6 249 117 114 236 186 213 153 171 140 183 224 164 176 212 221 208 239 158 275 237 204 190 237 230 229 238 231
275 286 279 295 258 244 249 249 233 210 225 266 292 275 259 202 240 227 241 281 215 236 249 223 167 181 207 187 33 149 94 183 249 153 235 152 258 272 216 197 249 253 262 247 243
285 281 275 278 292 245 241 236 230 222 206 234 233 244 265 242 220 218 181 214 174 187 242 69 144 180 135 128 57 349 177 187 283 193 145 188 257 259 157 205 251 253 256 261 266
271 274 275 274 265 270 234 219 216 228 195 210 232 314 239 245 210 198 179 159 180 152 166 177 161 171 161 167 204 174 191 215 213 210 175 204 256 271 254 274 269 268 255 252 251
275 274 267 263 260 258 244 214 174 228 206 195 209 225 308 228 106 180 161 146 139 163 175 210 192 207 195 202 189 169 184 187 216 216 163 226 248 259 246 231 265 274 272 253 247
275 276 273 261 257 253 249 219 207 195 186 220 246 252 268 4 215 201 144 174 181 198 134 158 228 200 172 184 176 165 178 210 274 153 174 268 257 251 252 234 228 243 259 257 248
271 274 272 262 259 253 237 247 170 142 228 231 217 228 220 200 251 215 169 162 197 191 194 206 210 159 173 175 188 196 200 171 198 161 235 309 269 225 255 211 234 247 242 262 251
269 269 269 266 255 221 238 195 140 68 239 222 202 249 188 224 229 228 204 165 186 206 166 235 204 191 177 199 182 213 161 165 168 132 243 160 283 282 251 272 232 251 240 246 272
262 260 257 240 202 183 146 133 120 298 216 206 174 190 202 182 142 205 184 210 189 163 164 212 155 150 208 192 178 202 154 176 148 164 334 203 291 266 210 276 260 247 253 251 255
254 255 257 249 238 197 140 136 116 205 226 186 147 180 157 200 240 119 166 241 171 176 197 207 187 179 197 163 179 134 88 61 56 91 259 191 183 228 174 208 256 175 120 300 304
256 261 294 206 220 142 131 110 206 211 293 213 174 188 190 189 213 195 179 192 183 179 192 47 178 188 147 111 115 147 144 120 271 197 240 307 197 254 247 248 221 243 257 293 304
255 247 241 241 152 151 149 185 219 184 205 163 154 168 193 196 208 220 186 193 210 182 167 185 207 175 179 171 161 185 177 170 188 192 202 140 231 240 229 253 262 250 248 253 270
255 267 248 200 160 167 172 206 192 201 182 149 117 180 188 193 184 210 210 205 200 188 182 190 228 137 175 154 152 197 206 187 102 40 103 209 285 288 250 263 250 254 245 253 212
236 226 222 163 163 166 181 198 216 227 109 161 188 173 177 183 192 188 205 205 216 213 215 202 193 196 168 113 224 181 178 170 215 164 224 253 269 232 249 243 212 210 220 206 179
230 221 174 152 121 176 190 199 191 198 154 140 192 145 217 172 194 192 188 249 209 211 212 183 151 176 135 197 181 172 181 184 182 164 205 237 252 216 217 213 178 126 113 110 81
130 216 168 150 144 180 185 189 150 153 171 107 93 104 193 203 196 207 205 199 211 189 204 213 151 152 200 16 19 210 190 193 200 197 212 146 256 263 248 170 145 144 112 103 91
178 156 170 175 151 171 167 186 133 141 129 157 166 168 122 318 248 194 223 224 166 186 199 194 204 174 129 54 18 201 202 200 189 104 196 210 242 76 155 169 185 141 118 115 123
167 170 108 174 70 156 144 173 146 54 113 139 136 111 100 240 150 277 309 253 220 193 214 190 224 220 209 209 153 184 188 191 200 209 199 204 193 207 211 199 206 205 179 113 158
186 165 191 157 156 148 132 142 140 155 103 136 142 179 177 169 182 218 242 217 295 257 225 196 204 223 232 242 161 199 206 182 202 211 212 221 204 209 201 197 198 199 182 204 285
145 140 33 136 124 125 166 201 147 146 141 141 159 199 213 171 184 267 57 145 230 208 210 167 251 128 216 100 176 206 207 191 206 215 217 206 234 207 204 124 190 201 184 208 196
127 61 106 146 155 122 190 152 150 121 132 144 178 173 246 222 228 232 213 178 268 259 206 184 157 167 223 156 125 230 200 192 207 214 199 198 224 151 173 195 202 192 187 206 194